Regional Weather Roundup
Issued by NWS

Home | Current Version | Previous Version | Graphics & Text | Print | Product List | Glossary On
Versions: 1 2 3 4 5 6 7 8 9 10 11 12 13 14 15 16 17 18 19 20 21 22 23 24 25 26 27
000
ASUS45 KBOI 180310
RWRID
WEATHER ROUNDUP FOR IDAHO
NATIONAL WEATHER SERVICE BOISE ID
900 PM MDT THU APR 17 2014

NOTE: "FAIR" INDICATES FEW OR NO CLOUDS BELOW 12000 FEET
WITH NO SIGNIFICANT WEATHER AND/OR OBSTRUCTIONS TO VISIBILITY

IDZ012-014-180400-
SOUTHWEST IDAHO


CITY           SKY/WX    TMP DP  RH WIND       PRES   REMARKS
BOISE          CLOUDY    69  35  28 W10G18    29.68R
CALDWELL       CLOUDY    66  41  39 W17G32    29.70R
MOUNTAIN HOME  CLOUDY    68  33  27 E16       29.64S
$$

IDZ016-017-180400-
SOUTHCENTRAL IDAHO


CITY           SKY/WX    TMP DP  RH WIND       PRES   REMARKS
BURLEY         MOCLDY    61  32  33 SW14      29.74R
JEROME         MOCLDY    68  30  24 E17G24    29.71F
TWIN FALLS     PTCLDY    61  33  35 S7        29.71F
$$

IDZ019>023-180400-
SOUTHEAST IDAHO


CITY           SKY/WX    TMP DP  RH WIND       PRES   REMARKS
IDAHO FALLS    PTCLDY    59  26  28 S12       29.84S
POCATELLO      PTCLDY    59  24  26 S16G24    29.82S
REXBURG        PTCLDY    53  25  33 S7        29.84S
$$

IDZ006-010-011-018-031-032-180400-
CENTRAL IDAHO MOUNTAINS


CITY           SKY/WX    TMP DP  RH WIND       PRES   REMARKS
MCCALL         LGT RAIN  51  34  52 W9        29.74R
HAILEY         PTCLDY    55  30  38 CALM      29.81S
STANLEY          N/A     47  28  47 SE9       29.80F
SALMON         CLOUDY    52  30  43 CALM      29.67F
CHALLIS        MOCLDY    58  26  29 S8        29.72F
$$

IDZ002-004-006-007-026-180400-
NORTHERN IDAHO


CITY           SKY/WX    TMP DP  RH WIND       PRES   REMARKS
LEWISTON       LGT RAIN  50  46  86 W6        29.80R
LOWELL           N/A     53  47  79 CALM      29.77R
COEUR D`ALENE  CLOUDY    46  45  93 S7        29.76S
MULLAN PASS    SNOW      32  32 100 VRB5      29.74F VSB 1/2 WCI  27
$$



USA.gov is the U.S. government's official web portal to all federal, state and local government web resources and services.